Birmingham, AL

2:37 PM CDT on October 18, 2017 (GMT -0500)
Birmingham International

Weather History for KBHM - August, 2014

Change the Weather History Date:

Monday, August 25, 2014

  Actual Average Record
Temperature  
Mean Temperature 82 °F 80 °F  
Max Temperature 89 °F 90 °F 102 °F (1938)
Min Temperature 74 °F 70 °F 57 °F (1916)
Cooling Degree Days 17 15  
Month to date cooling degree days 419 396  
Year to date cooling degree days 1550 1559  
Since 1 June cooling degree days 1257 1277  
Growing Degree Days 30 (Base 50)    
Moisture  
Dew Point 67 °F    
Average Humidity 65    
Maximum Humidity 84    
Minimum Humidity 46    
Precipitation  
Precipitation 0.00 in 0.12 in 2.81 in (2008)
Month to date precipitation 3.08 3.24  
Year to date precipitation 31.67 36.39  
Sea Level Pressure  
Sea Level Pressure 30.02 in    
Wind  
Wind Speed 6 mph (ENE)    
Max Wind Speed 14 mph    
Max Gust Speed 19 mph    
Visibility 10 miles    
Events      
T = Trace of Precipitation, MM = Missing Value Source: NWS Daily Summary

Daily Weather History Graph

Daily Weather History Graph

Search for Another Location

Airport or City:

Trip Planner

Search our weather history database for the weather conditions in past years. The results will help you decide how hot, cold, wet, or windy it might be!

Date:

Astronomy

Aug. 25, 2014 Rise Set
Actual Time 6:16 AM CDT 7:21 PM CDT
Civil Twilight 5:50 AM CDT 7:46 PM CDT
Nautical Twilight 5:19 AM CDT 8:17 PM CDT
Astronomical Twilight 4:48 AM CDT 8:48 PM CDT
Moon 6:18 AM CDT (8/25) 7:15 PM CDT (8/25)
Length of Visible Light 13h 56m
Length of Day
13h 05m
New Moon, 0% of the Moon is Illuminated
Aug 25
New Moon
Sep 2
First Quarter
Sep 8
Full
Sep 15
Last Quarter
Sep 24
New

Hourly Weather History & Observations

Time (CDT) Temp. Heat Index Dew Point Humidity Pressure Visibility Wind Dir Wind Speed Gust Speed Precip Events Conditions
12:53 AM 78.1 °F - 72.0 °F 81% 29.99 in 10.0 mi East 6.9 mph - N/A   Scattered Clouds
1:53 AM 78.1 °F - 71.1 °F 79% 29.99 in 10.0 mi Variable 6.9 mph - N/A   Overcast
2:53 AM 78.1 °F - 69.1 °F 74% 29.99 in 10.0 mi East 9.2 mph 18.4 mph N/A   Overcast
3:53 AM 77.0 °F - 68.0 °F 74% 30.00 in 10.0 mi East 9.2 mph - N/A   Mostly Cloudy
4:53 AM 75.9 °F - 68.0 °F 76% 30.01 in 10.0 mi East 4.6 mph - N/A   Partly Cloudy
5:53 AM 73.9 °F - 68.0 °F 82% 30.02 in 10.0 mi Variable 3.5 mph - N/A   Scattered Clouds
6:53 AM 73.9 °F - 66.9 °F 79% 30.03 in 10.0 mi East 8.1 mph - N/A   Scattered Clouds
7:53 AM 75.9 °F - 66.9 °F 74% 30.05 in 10.0 mi Variable 5.8 mph - N/A   Scattered Clouds
8:53 AM 77.0 °F - 66.2 °F 69% 30.08 in 10.0 mi ESE 10.4 mph 18.4 mph N/A   Mostly Cloudy
9:53 AM 79.0 °F - 64.9 °F 62% 30.07 in 10.0 mi ESE 9.2 mph 18.4 mph N/A   Mostly Cloudy
10:53 AM 81.0 °F 83.3 °F 66.9 °F 62% 30.07 in 10.0 mi Variable 5.8 mph - N/A   Mostly Cloudy
11:53 AM 82.9 °F 85.4 °F 66.9 °F 58% 30.06 in 10.0 mi Variable 3.5 mph - N/A   Mostly Cloudy
12:53 PM 84.9 °F 87.1 °F 66.0 °F 53% 30.04 in 10.0 mi NE 8.1 mph - N/A   Mostly Cloudy
1:53 PM 86.0 °F 87.6 °F 64.9 °F 49% 30.03 in 10.0 mi NNE 5.8 mph - N/A   Mostly Cloudy
2:53 PM 87.1 °F 89.2 °F 66.0 °F 49% 30.01 in 10.0 mi ENE 4.6 mph - N/A   Mostly Cloudy
3:53 PM 88.0 °F 89.6 °F 64.9 °F 46% 29.99 in 10.0 mi Variable 4.6 mph - N/A   Scattered Clouds
4:53 PM 86.0 °F 87.6 °F 64.9 °F 49% 29.99 in 10.0 mi Variable 5.8 mph - N/A   Mostly Cloudy
5:53 PM 86.0 °F 87.6 °F 64.9 °F 49% 29.98 in 10.0 mi NE 9.2 mph - N/A   Scattered Clouds
6:53 PM 84.0 °F 85.8 °F 64.9 °F 53% 29.97 in 10.0 mi NE 6.9 mph - N/A   Mostly Cloudy
7:53 PM 79.0 °F - 66.9 °F 66% 30.00 in 10.0 mi NNE 3.5 mph - N/A   Clear
8:53 PM 78.8 °F - 66.2 °F 65% 30.05 in 10.0 mi East 4.6 mph - N/A   Clear
9:53 PM 77.0 °F - 66.2 °F 69% 30.07 in 10.0 mi NE 3.5 mph - N/A   Clear
10:53 PM 75.9 °F - 66.9 °F 74% 30.05 in 10.0 mi NE 3.5 mph - N/A   Clear
11:53 PM 75.0 °F - 66.9 °F 76% 30.04 in 10.0 mi NE 5.8 mph - N/A   Clear